Location: Capannelle
(41.8333°N, 12.5667°E)
Time: 15:20:06
(UTC+00:00)

Daily predictions for brighter satellites

Satellite Brightness Start Highest point End
(mag) Time Altitude Azimuth Time Altitude Azimuth Time Altitude Azimuth
Cosmos 371 Rocket 3.8 16:38:06 10° SSW 16:42:52 67° WNW 16:47:42 10° NNE
Cosmos 1953 2.2 16:42:29 10° S 16:46:26 79° E 16:50:25 10° N
YAOGAN 6 3.6 16:42:55 10° S 16:46:26 53° W 16:50:01 10° NNW
Helios 1A Rocket 4.0 16:44:04 10° ESE 16:47:26 25° ENE 16:50:49 10° NNE
NOSS 2-1 (E) 3.4 16:45:39 10° SW 16:48:58 61° NW 16:52:24 10° NNE
Gbstr 26 Del rocket 4.5 16:44:23 10° NW 16:50:40 54° NNE 16:58:07 10° ESE
SKYMED 2 4.1 16:47:00 10° NNE 16:51:05 39° E 16:55:08 10° SSE
SL-4 R/B 2.0 16:49:48 10° WSW 16:53:16 65° NNW 16:56:56 10° NE
FALCON 9 DEB 4.1 16:50:20 10° WSW 16:53:37 42° NNW 16:56:53 10° NE
Geosat 4.5 16:50:06 10° NE 16:54:49 39° ESE 16:59:30 10° S
Cosmos 1833 4.2 16:49:36 10° NNW 16:55:22 69° ENE 17:01:04 10° SSE
GEOS 3 Rocket 4.1 16:52:39 10° ESE 16:57:37 42° NE 17:02:41 10° NNW
CORIOLIS 4.4 16:52:30 10° S 16:57:49 76° WSW 17:03:12 10° NNW
Cosmos 332 Rocket 4.3 16:55:10 10° SSW 17:00:01 67° WNW 17:04:57 10° NNE
SL-27 R/B 3.3 17:02:50 10° NNW 17:06:20 54° WSW 17:09:45 10° S
CZ-4B R/B 4.5 17:02:09 10° S 17:07:35 48° W 17:12:59 10° NNW
Aureole 1 Rocket 2.1 17:04:45 10° NNW 17:07:46 87° WSW 17:10:47 10° SSE
Meteor 1-16 Rocket 4.3 17:03:23 10° S 17:09:10 89° W 17:14:47 10° N
Feng Yun 1-1 Rocket 4.4 17:05:30 10° SSE 17:11:19 83° ENE 17:17:17 10° NNW
Cosmos 1602 Rocket 3.7 17:07:13 10° N 17:11:43 85° W 17:16:11 10° S
Cosmos 1626 Rocket 4.2 17:07:34 10° NNW 17:11:58 61° W 17:16:18 10° S
Cosmos 2228 3.4 17:09:00 10° SSE 17:12:55 38° E 17:16:52 10° NNE
BREEZE-M R/B 4.1 17:09:38 10° W 17:13:01 41° N 17:19:02 11° ENE
USA 229 DEB 4.0 17:07:50 10° NW 17:15:14 89° SW 17:22:59 10° SSE
USA 229 4.0 17:07:57 10° NW 17:15:20 90° WSW 17:23:04 10° SSE
Cosmos 1939 Rocket 2.8 17:11:35 10° SSE 17:15:35 69° ENE 17:19:33 10° N
Cosmos 1356 Rocket 3.8 17:12:33 10° SSW 17:16:44 68° WNW 17:21:01 10° N
Aureole 3 Rocket 4.3 17:17:59 16° ENE 17:17:59 16° ENE 17:19:45 10° NE
Cosmos 1953 Rocket 4.4 17:14:52 10° NNE 17:18:42 29° ENE 17:22:34 10° SE
ERS-2 4.2 17:16:45 10° N 17:19:59 30° WNW 17:23:12 10° SW
Hubble Space Telescope 3.2 17:19:32 10° SSW 17:21:22 13° S 17:23:12 10° SSE
MOS 1 Rocket 4.2 17:18:01 10° NE 17:21:51 26° E 17:25:49 10° SSE
Cosmos 1908 3.5 17:19:14 10° SSW 17:23:01 69° W 17:26:52 10° N
Cosmos 1703 3.3 17:19:38 10° N 17:23:35 84° W 17:27:30 10° S
Meteor 1-11 4.3 17:18:50 10° N 17:24:28 60° ENE 17:30:08 10° SSE
CZ-4 R/B 1.5 17:21:08 10° SSE 17:24:56 46° ENE 17:28:42 10° N
CZ-4B R/B 3.6 17:22:20 10° N 17:25:12 27° WNW 17:27:59 10° SW
CZ-2D R/B 3.2 17:22:01 10° SSE 17:25:47 65° ENE 17:29:35 10° N
Okean O Rocket 3.9 17:22:14 10° SSW 17:26:00 28° W 17:29:47 10° NW
IRS-1C Rocket 4.1 17:21:24 10° SSE 17:26:40 89° WSW 17:31:58 10° NNW
NOSS 3-1 (A) 4.2 17:20:37 10° NW 17:28:21 89° ENE 17:37:11 10° SSE
Cosmos 1110 Rocket 4.1 17:25:03 10° S 17:30:08 51° ESE 17:35:12 10° NNE
Cosmos 2227 Rocket 3.8 17:27:17 10° N 17:30:32 15° NE 17:31:21 15° ENE
Milstar 3 4.2 17:27:07 10° SSW 17:32:05 22° SSE 17:36:16 13° ESE
Cosmos 1741 Rocket 3.9 17:28:28 10° NNW 17:33:45 74° ENE 17:38:57 10° SSE
ATLAS 5 CENTAUR R/B 3.9 17:33:29 10° W 17:36:32 19° NW 17:39:51 10° N
COSMO-SKYMED 1 3.1 17:34:53 10° N 17:39:11 61° WNW 17:43:27 10° SSW
Lacrosse 5 3.6 17:36:43 10° W 17:40:58 26° NNW 17:45:13 10° NNE
H-2A R/B 2.4 17:37:36 10° SE 17:42:37 45° ENE 17:47:47 10° N
USA 215 3.9 17:40:04 21° ENE 17:43:45 38° NNE 17:49:40 10° NW
USA 276 2.0 17:41:07 10° WNW 17:44:20 90° WSW 17:45:14 44° ESE
ARGOS 3.7 17:42:15 20° ESE 17:45:17 36° ENE 17:50:11 10° N
Okean-O 2.6 17:42:02 10° SSE 17:46:27 87° WSW 17:50:55 10° NNW
SeaSat 1 2.6 17:45:48 20° SE 17:49:01 54° ENE 17:53:49 10° NNW
OAO 3 Rocket 4.2 17:46:57 10° SW 17:51:10 33° S 17:52:44 26° SE
CSL-04 Rocket 3.8 17:45:54 10° SSE 17:51:18 56° ENE 17:56:43 10° N
COSMOS 2487 2.4 17:48:59 10° NNW 17:52:26 82° WSW 17:54:56 17° SSE
Cosmos 1850 Rocket 4.3 17:48:11 10° NNW 17:53:28 71° WSW 17:58:45 10° S
Aureole 3 3.2 17:50:53 10° S 17:54:17 49° ESE 17:54:17 49° ESE
YAOGAN 1 2.5 17:53:22 10° SSE 17:57:41 86° W 18:02:02 10° NNW
Cosmos 1300 2.6 17:54:10 10° S 17:57:58 86° WNW 18:01:48 10° N
Cosmos 1745 Rocket 4.5 17:53:57 10° N 17:59:40 36° ENE 18:00:56 33° E
Cosmos 1825 Rocket 4.0 17:55:48 10° NNW 18:00:14 64° W 18:04:37 10° S
Nadezhda 2 Rocket 4.5 17:56:18 10° N 18:02:42 82° E 18:09:08 10° S
Cosmos 1400 Rocket 2.8 18:01:00 10° S 18:05:03 59° E 18:05:29 55° ENE
CZ-2C R/B 3.3 17:59:47 10° SSE 18:05:37 84° WSW 18:11:27 10° NNW
SL-08 R/B 4.5 18:01:39 10° N 18:07:46 57° E 18:12:40 16° SSE
SJ-11-01 4.1 18:06:46 14° SSE 18:10:50 82° ENE 18:15:31 10° N
Cosmos 1244 Rocket 4.4 18:05:18 10° N 18:11:30 86° E 18:17:44 10° S
Cosmos 2297 Rocket 2.9 18:07:12 10° N 18:12:08 34° NE 18:12:08 34° NE
Cosmos 1726 Rocket 4.2 18:11:47 10° SSW 18:16:00 54° W 18:20:17 10° N
Meteor 2-8 Rocket 4.3 18:10:11 10° S 18:16:16 84° E 18:22:25 10° N
In-Cosmos 22 Rocket 4.0 18:12:54 10° N 18:18:13 65° ENE 18:19:42 45° SE
CSL-04 Debris 4.3 18:17:23 10° S 18:22:47 75° WSW 18:28:15 10° NNW
Ariane Rocket 4.1 18:26:42 29° NNE 18:26:42 29° NNE 18:29:36 10° N
Cosmos 2219 3.5 18:25:48 10° NNW 18:30:55 50° NE 18:30:55 50° NE
Timation 2 Rocket 4.0 18:25:32 10° NNW 18:32:07 79° ENE 18:34:14 47° SE
SL-4 R/B 3.8 18:30:32 10° WNW 18:33:10 21° NNW 18:33:10 21° NNW
Cosmos 44 3.5 18:32:27 10° SSW 18:35:52 54° SW 18:35:52 54° SW
S3M 3.8 18:38:15 10° S 18:44:21 83° E 18:50:30 10° N
SL-08 ROCKET BODY 4.3 18:38:30 10° N 18:44:36 90° W 18:46:19 50° S
Cosmos 2058 Rocket 4.3 18:42:06 10° SSW 18:46:19 42° WNW 18:50:36 10° N
Meteor 2-15 4.5 18:46:49 10° SSW 18:52:58 78° W 18:59:09 10° N
Cosmos 2227 Rocket 3.2 19:09:45 10° NNW 19:13:11 39° NNW 19:13:11 39° NNW
H-2A R/B 4.2 19:17:58 10° SSW 19:22:13 24° W 19:26:34 10° NW
Lacrosse 5 4.4 19:22:48 10° NW 19:24:49 14° NNW 19:24:49 14° NNW
USA 215 3.5 19:27:26 65° WNW 19:27:26 65° WNW 19:32:58 10° NW
ATLAS 2AS CENTAUR R/B 4.4 19:30:00 10° NNW 19:34:18 24° N 19:34:18 24° N
Cosmos 2297 Rocket 4.2 19:51:17 10° NW 19:53:58 25° WNW 19:53:58 25° WNW
